| time (UTC) | temp F | wind direction | speed MPH | gust MPH | rain 1hr in | rain 24hr in | rain mn in | humidity % | barometer mb |
| 20260505203005 | 55 | 0 | 0.0 | 0.0 | 0.00 | 0.10 | 0.09 | 89 | 1012.5 |
| 20260505201503 | 55 | 0 | 0.0 | 0.0 | 0.00 | 0.10 | 0.09 | 89 | 1012.4 |
| 20260505200006 | 56 | 0 | 0.0 | 0.0 | 0.00 | 0.10 | 0.09 | 89 | 1012.4 |
| 20260505194504 | 56 | 0 | 0.0 | 0.0 | 0.00 | 0.10 | 0.09 | 88 | 1012.3 |
| 20260505193006 | 56 | 0 | 0.0 | 0.0 | 0.00 | 0.10 | 0.09 | 88 | 1012.1 |
| 20260505191504 | 57 | 90 | 1.0 | 3.0 | 0.00 | 0.10 | 0.09 | 88 | 1012.1 |
| 20260505190006 | 58 | 45 | 3.0 | 4.0 | 0.00 | 0.10 | 0.09 | 87 | 1012.1 |
| 20260505184503 | 58 | 0 | 0.0 | 0.0 | 0.00 | 0.10 | 0.09 | 86 | 1012.0 |
| 20260505183005 | 58 | 0 | 0.0 | 0.0 | 0.00 | 0.10 | 0.09 | 86 | 1012.1 |
| 20260505181503 | 59 | 0 | 0.0 | 0.0 | 0.00 | 0.10 | 0.09 | 84 | 1012.0 |
| 20260505180005 | 60 | 0 | 0.0 | 0.0 | 0.00 | 0.10 | 0.09 | 83 | 1012.0 |
| 20260505174503 | 61 | 0 | 0.0 | 0.0 | 0.00 | 0.10 | 0.09 | 81 | 1011.9 |
| 20260505173006 | 64 | 68 | 2.0 | 3.0 | 0.00 | 0.10 | 0.09 | 79 | 1011.7 |
| 20260505171503 | 65 | 23 | 0.0 | 1.0 | 0.00 | 0.10 | 0.09 | 77 | 1011.6 |
| 20260505170005 | 66 | 49 | 1.0 | 6.0 | 0.00 | 0.10 | 0.09 | 75 | 1011.5 |
| 20260505164504 | 67 | 0 | 0.0 | 0.0 | 0.00 | 0.10 | 0.09 | 74 | 1011.4 |
| 20260505163007 | 68 | 23 | 0.0 | 2.0 | 0.00 | 0.10 | 0.09 | 73 | 1011.6 |
| 20260505161503 | 69 | 68 | 1.0 | 3.0 | 0.00 | 0.10 | 0.09 | 74 | 1011.7 |
| 20260505153005 | 66 | 56 | 2.0 | 6.0 | 0.00 | 0.10 | 0.09 | 76 | 1011.9 |
| 20260505151503 | 71 | 45 | 4.0 | 6.0 | 0.00 | 0.10 | 0.09 | 71 | 1012.0 |
| 20260505124503 | 64 | 86 | 2.0 | 7.0 | 0.00 | 0.10 | 0.09 | 81 | 1012.9 |
| 20260505123005 | 62 | 95 | 1.0 | 3.0 | 0.00 | 0.10 | 0.09 | 83 | 1013.0 |
| 20260505121503 | 62 | 83 | 1.0 | 3.0 | 0.00 | 0.10 | 0.09 | 82 | 1013.1 |
| 20260505120006 | 63 | 111 | 2.0 | 5.0 | 0.00 | 0.10 | 0.09 | 82 | 1013.1 |
| 20260505114503 | 63 | 112 | 2.0 | 5.0 | 0.00 | 0.10 | 0.09 | 80 | 1013.2 |
| 20260505113005 | 64 | 111 | 3.0 | 5.0 | 0.00 | 0.10 | 0.09 | 81 | 1013.1 |
| 20260505111503 | 64 | 107 | 2.0 | 6.0 | 0.00 | 0.10 | 0.09 | 83 | 1013.1 |
| 20260505101503 | 60 | 90 | 5.0 | 6.0 | 0.05 | 0.10 | 0.09 | 86 | 1013.0 |
| 20260505100005 | 60 | 0 | 0.0 | 0.0 | 0.05 | 0.10 | 0.09 | 86 | 1013.2 |
| 20260505094503 | 60 | 0 | 0.0 | 0.0 | 0.02 | 0.07 | 0.07 | 85 | 1013.3 |
| 20260505093005 | 60 | 0 | 0.0 | 0.0 | 0.02 | 0.07 | 0.07 | 84 | 1013.8 |
| 20260505091503 | 60 | 0 | 0.0 | 0.0 | 0.02 | 0.05 | 0.05 | 84 | 1013.9 |
| 20260505090005 | 61 | 0 | 0.0 | 0.0 | 0.05 | 0.05 | 0.05 | 84 | 1013.5 |
| 20260505084502 | 61 | 0 | 0.0 | 0.0 | 0.05 | 0.05 | 0.05 | 84 | 1013.5 |
| 20260505083005 | 60 | 0 | 0.0 | 0.0 | 0.05 | 0.05 | 0.05 | 83 | 1013.7 |
| 20260505081503 | 59 | 0 | 0.0 | 0.0 | 0.02 | 0.02 | 0.02 | 82 | 1013.6 |
| 20260505080005 | 60 | 0 | 0.0 | 0.0 | 0.00 | 0.00 | 0.00 | 80 | 1013.8 |
| 20260505074503 | 60 | 156 | 0.0 | 1.0 | 0.00 | 0.00 | 0.00 | 77 | 1013.6 |
| 20260505073004 | 61 | 181 | 1.0 | 3.0 | 0.00 | 0.00 | 0.00 | 75 | 1013.7 |
| 20260505071503 | 61 | 0 | 0.0 | 0.0 | 0.00 | 0.00 | 0.00 | 74 | 1013.7 |
| 20260505070005 | 61 | 0 | 0.0 | 0.0 | 0.00 | 0.00 | 0.00 | 76 | 1013.3 |
| 20260505064506 | 60 | 0 | 0.0 | 0.0 | 0.00 | 0.00 | 0.00 | 77 | 1013.3 |
| 20260505063007 | 60 | 0 | 0.0 | 0.0 | 0.00 | 0.00 | 0.00 | 78 | 1013.3 |
| 20260504221504 | 61 | 0 | 0.0 | 0.0 | 0.00 | 0.00 | 0.00 | 69 | 1014.7 |
| 20260504220006 | 61 | 0 | 0.0 | 0.0 | 0.00 | 0.00 | 0.00 | 68 | 1014.8 |
| 20260504214504 | 62 | 0 | 0.0 | 0.0 | 0.00 | 0.00 | 0.00 | 67 | 1014.9 |
| 20260504213006 | 62 | 157 | 2.0 | 4.0 | 0.00 | 0.00 | 0.00 | 66 | 1015.0 |
| 20260504211505 | 62 | 181 | 2.0 | 4.0 | 0.00 | 0.00 | 0.00 | 66 | 1015.1 |
| 20260504210007 | 63 | 0 | 0.0 | 0.0 | 0.00 | 0.00 | 0.00 | 64 | 1015.3 |
| 20260504204503 | 64 | 156 | 0.0 | 1.0 | 0.00 | 0.00 | 0.00 | 63 | 1015.3 |